Weather History for Meknes, Morocco

Change the Weather History Date:

Thursday, October 11, 2012

  Actual Average Record
Temperature  
Mean Temperature 70 °F -  
Max Temperature 79 °F - - ()
Min Temperature 60 °F - - ()
Cooling Degree Days 4    
Growing Degree Days 20 (Base 50)    
Moisture  
Dew Point 59 °F    
Average Humidity 76    
Maximum Humidity 100    
Minimum Humidity 34    
Precipitation  
Precipitation 0.00 in - - ()
Sea Level Pressure  
Sea Level Pressure 30.08 in    
Wind  
Wind Speed 2 mph ()    
Max Wind Speed 10 mph    
Max Gust Speed -    
Visibility 4.1 miles    
Events Fog    
T = Trace of Precipitation, MM = Missing Value Source: Averaged Metar Reports

Daily Weather History Graph

Daily Weather History Graph

Search for Another Location

Airport:

Trip Planner

Search our weather history database for the weather conditions in past years. The results will help you decide how hot, cold, wet, or windy it might be!

Date:

Astronomy

Oct. 11, 2012 Rise Set
Actual Time 6:24 AM WET 5:52 PM WET
Civil Twilight 5:59 AM WET 6:17 PM WET
Nautical Twilight 5:30 AM WET 6:46 PM WET
Astronomical Twilight 5:01 AM WET 7:15 PM WET
Moon 1:59 AM WET (10/11) 3:11 PM WET (10/11)
Length of Visible Light 12h 18m
Length of Day
11h 28m
Waning Crescent, 20% of the Moon is Illuminated
Oct 11
Waning Crescent
Oct 15
New
Oct 22
First Quarter
Oct 29
Full
Nov 7
Last Quarter

Hourly Weather History & Observations

Time (WET) Temp. Dew Point Humidity Pressure Visibility Wind Dir Wind Speed Gust Speed Precip Events Conditions
12:00 AM 63 °F 59 °F 83% 30.05 in 6 mi Calm Calm - -  
12:00 AM 62.6 °F 59.0 °F 88% 30.09 in - Calm Calm - N/A   Clear
1:00 AM 60.8 °F 59.0 °F 94% 30.09 in - Calm Calm - N/A   Clear
2:00 AM 62.6 °F 60.8 °F 94% 30.09 in 5.0 mi West 2.3 mph - N/A   Partly Cloudy
3:00 AM 62 °F 60 °F 92% 30.05 in 2 mi West 2.3 mph - -  
3:00 AM 62.6 °F 60.8 °F 94% 30.09 in 1.9 mi West 2.3 mph - N/A   Scattered Clouds
4:00 AM 62.6 °F 60.8 °F 94% 30.09 in 1.2 mi Calm Calm - N/A   Scattered Clouds
5:00 AM 60.8 °F 60.8 °F 100% 30.09 in 1.2 mi Calm Calm - N/A   Scattered Clouds
6:00 AM 62 °F 62 °F 99% 30.05 in 0 mi Calm Calm - - Fog Partial Fog
7:00 AM 60.8 °F 60.8 °F 100% 30.09 in 0.5 mi Calm Calm - N/A Fog Fog
8:00 AM 60.8 °F 59.0 °F 94% 30.09 in 0.5 mi SE 2.3 mph - N/A Fog Fog
8:30 AM 60.8 °F 59.0 °F 94% 30.09 in - North - - N/A   Overcast
9:00 AM 63 °F 61 °F 91% 30.08 in 2 mi NW 2.3 mph - -   Mostly Cloudy
9:00 AM 62.6 °F 60.8 °F 94% 30.12 in 1.9 mi NW 2.3 mph - N/A   Mostly Cloudy
10:00 AM 68.0 °F 60.8 °F 78% 30.12 in 2.5 mi NW 4.6 mph - N/A   Scattered Clouds
10:12 AM 68.0 °F 60.8 °F 78% 30.12 in 3.1 mi NW 5.8 mph - N/A   Scattered Clouds
11:00 AM 71.6 °F 59.0 °F 64% 30.12 in 3.1 mi NW 2.3 mph - N/A   Partly Cloudy
12:00 PM 75 °F 57 °F 43% 30.02 in 5 mi NW 4.6 mph - -   Scattered Clouds
12:00 PM 75.2 °F 57.2 °F 53% 30.09 in 5.0 mi NW 4.6 mph - N/A   Partly Cloudy
1:00 PM 77.0 °F 57.2 °F 50% 30.09 in 6.2 mi NW 4.6 mph - N/A   Scattered Clouds
2:00 PM 78.8 °F 57.2 °F 47% 30.06 in 6.2 mi NW 10.4 mph - N/A   Partly Cloudy
3:00 PM 79 °F 55 °F 34% 29.96 in 6 mi NW 6.9 mph - -   Scattered Clouds
3:00 PM 78.8 °F 55.4 °F 44% 30.06 in 6.2 mi NW 6.9 mph - N/A   Scattered Clouds
4:00 PM 78.8 °F 57.2 °F 47% 30.06 in 6.2 mi NNW 8.1 mph - N/A   Scattered Clouds
6:00 PM 74 °F 58 °F 48% 29.99 in 6 mi NNW 4.6 mph - -   Scattered Clouds
6:00 PM 73.4 °F 59.0 °F 61% 30.06 in 6.2 mi NNW 4.6 mph - N/A   Scattered Clouds
7:00 PM 71.6 °F 59.0 °F 64% 30.09 in 6.2 mi NW 6.9 mph - N/A   Scattered Clouds
8:00 PM 68.0 °F 60.8 °F 78% 30.09 in 6.2 mi NW 9.2 mph - N/A   Partly Cloudy
9:00 PM 67 °F 62 °F 77% 30.07 in 6 mi NW 6.9 mph - -   Partly Cloudy
9:00 PM 66.2 °F 60.8 °F 83% 30.12 in 6.2 mi NW 6.9 mph - N/A   Scattered Clouds
10:00 PM 64.4 °F 60.8 °F 88% 30.12 in 6.2 mi West 2.3 mph - N/A   Scattered Clouds
11:00 PM 66.2 °F 62.6 °F 88% 30.12 in 5.0 mi WNW 3.5 mph - N/A   Mostly Cloudy